User: anonymous   Login
Location: Fort Wayne
(41.1310°N, 85.1290°W)
Time: 03:56:49
(UTC-05:00)
Language:

Cosmos 1953 - Orbit

View from above orbital plane
View from above orbital plane
View from above satellite
View from above satellite

Ground track
Ground track

The orbit data is extracted from the following two-line orbital elements,

1 19210U 88050A   18051.82472761 +.00000844 +00000-0 +56546-4 0  9992
2 19210 082.5198 152.2856 0014369 129.0523 231.1985 15.05504416594112
Epoch (UTC): 20 February 2018 19:47:36
Eccentricity: 0.0014369
inclination: 82.5198°
perigee height: 540 km
apogee height: 560 km
right ascension of ascending node: 152.2856°
argument of perigee: 129.0523°
revolutions per day: 15.05504416
mean anomaly at epoch: 231.1985°
orbit number at epoch: 59411

The dashed part of the orbit path shows where the satellite is in the earth's shadow,  

DLR